Location: *
(10.4782°S, 112.7837°E)
Time: 18:22:35
(UTC+00:00)

Daily predictions for brighter satellites

Satellite Brightness Start Highest point End
(mag) Time Altitude Azimuth Time Altitude Azimuth Time Altitude Azimuth
Cosmos 1953 4.5 12:05:01 10° SW 12:08:13 25° W 12:11:23 10° NNW
Cosmos 1455 3.6 12:06:44 10° SSW 12:10:00 34° W 12:13:14 10° NNW
Cosmos 2082 Rocket 2.4 12:11:28 10° N 12:15:55 55° N 12:15:55 55° N
Cosmos 2327 Rocket 4.3 12:20:31 10° N 12:26:22 82° NW 12:26:22 82° NW
ADEOS Rocket 4.0 12:22:10 10° S 12:28:13 43° WSW 12:33:43 10° NW
ARIANE 5 R/B 4.2 12:27:10 10° WNW 12:31:13 21° NW 12:31:13 21° NW
USA 229 DEB 4.4 12:32:06 10° SSW 12:35:35 36° SSW 12:35:35 36° SSW
USA 229 4.4 12:32:12 10° SSW 12:35:35 35° SSW 12:35:35 35° SSW
Centaur D AC-29 4.2 13:06:06 10° WNW 13:07:12 12° WNW 13:07:12 12° WNW
Milstar 3 Cent rocket 3.8 20:11:11 64° SW 20:11:42 65° SSW 20:19:37 10° SE
USA 238 DEB 3.8 20:23:19 83° WSW 20:23:19 83° WSW 20:31:07 10° SSE
USA 238 3.8 20:23:15 84° W 20:23:25 84° WSW 20:31:16 10° SSE
Delta 198 4.3 20:34:30 80° N 20:34:30 80° N 20:41:05 10° ENE
ARIANE 5 R/B 4.4 20:32:22 35° NNW 20:35:12 47° NNE 21:47:09 10° E
Ariane H10+ 4.2 20:39:12 15° NNE 20:39:12 15° NNE 20:40:00 10° NE
Cosmos 1943 3.7 20:42:05 46° N 20:42:05 46° N 20:46:03 10° N
H-2A R/B 3.3 20:37:50 10° N 20:40:24 30° N 20:40:24 30° N
USA 267 3.2 20:39:30 10° SE 20:46:05 84° NE 20:50:00 27° NNW
OAO 1 Rocket 4.3 20:48:14 87° S 20:48:14 87° S 20:53:31 10° SE
Centaur AC-64 4.0 20:59:30 23° NNW 21:00:48 26° N 21:03:10 10° ENE
Cosmos 1603 3.5 20:59:41 40° SSW 21:01:44 73° WNW 21:07:17 10° N
Cosmos 1340 4.3 21:07:01 20° S 21:07:01 20° S 21:08:13 10° S
FengYun 1-2 T 4.2 21:02:47 10° NNE 21:08:16 83° ESE 21:13:46 10° S
Fermi 3.6 21:09:45 65° NW 21:09:54 66° NNW 21:13:51 10° ENE
OAO 3 Copernicus 4.5 21:10:30 36° SW 21:12:28 68° SE 21:17:29 10° ENE
Cosmos 1553 Rocket 3.9 21:07:22 10° NNW 21:13:21 58° W 21:19:20 10° S
GPS 2-17 Rocket1 4.5 21:13:30 23° SSW 21:14:16 24° S 21:18:02 10° SE
Cosmos 2278 Rocket 2.1 21:09:19 10° NNW 21:14:57 85° WSW 21:20:38 10° SSE
ISS -1.8 21:17:47 19° NNW 21:17:47 19° NNW 21:19:08 10° N
Cosmos 2228 Rocket 3.5 21:16:21 10° S 21:20:51 64° E 21:25:16 10° NNE
Cosmos 1707 Rocket 4.4 21:17:43 10° S 21:21:58 52° E 21:26:10 10° NNE
Cosmos 2084 Rocket 3.5 21:25:57 29° WNW 21:27:33 47° WSW 21:31:32 10° S
SL-14 R/B 4.2 21:24:20 10° S 21:28:06 48° E 21:31:52 10° NNE
Cosmos 614 Rocket 3.8 21:25:04 10° SSW 21:30:04 64° WNW 21:35:02 10° N
ARIANE 5 R/B 2.8 21:27:13 10° N 21:32:07 44° WNW 21:37:01 10° SSW
Hubble Space Telescope 2.2 21:31:35 20° SW 21:32:19 21° SSW 21:35:27 10° SSE
ARGOS 3.2 21:27:13 10° N 21:32:22 52° WNW 21:37:36 10° SSW
Cosmos 1420 Rocket 4.1 21:29:05 10° N 21:34:21 84° ENE 21:39:41 10° SSE
Nadezhda 2 Rocket 4.4 21:30:14 10° S 21:36:27 80° W 21:42:33 10° N
Cosmos 2056 Rocket 3.8 21:32:27 10° N 21:37:49 74° ENE 21:43:11 10° SSE
In-Cosmos 22 4.5 21:34:04 10° SSW 21:38:55 38° W 21:43:48 10° NNW
USA 306 3.7 21:38:51 23° W 21:39:51 27° WNW 21:43:08 10° N
Cosmos 1633 Rocket 4.0 21:36:24 10° NW 21:39:56 24° W 21:43:31 10° SSW
OAO 2 Rocket 3.2 21:37:49 19° WSW 21:41:19 78° NW 21:46:19 10° NE
Spot 4 Rocket 4.3 21:38:24 10° NNE 21:43:29 73° ESE 21:48:37 10° S
SWIFT 4.1 21:47:06 12° WNW 21:49:23 18° NNW 21:52:10 10° NNE
Okean 3 4.0 21:45:29 10° S 21:49:41 64° E 21:53:51 10° NNE
Cosmos 1624 Rocket 3.9 21:45:00 10° NNW 21:50:09 81° WSW 21:55:21 10° S
CZ-2D R/B 4.2 21:51:53 10° NNW 21:55:42 34° W 21:59:38 10° SW
Cosmos 1470 2.6 21:53:20 10° N 21:57:07 89° ESE 22:00:54 10° S
Cosmos 1269 Rocket 4.0 21:54:20 10° SSW 21:59:34 63° WNW 22:04:46 10° N
Lacrosse 5 rocket 1.9 21:55:31 10° SSW 21:59:51 64° ESE 22:04:06 10° NE
Meteor 1-21 4.2 21:54:19 10° SSW 22:00:01 69° W 22:05:36 10° N
Delta 168 2.7 21:57:15 12° W 22:00:03 52° SSW 22:03:57 10° SE
SeaSat 1 2.5 21:57:10 10° NNE 22:02:04 90° E 22:07:00 10° SSW
PSLV R/B 3.4 21:58:27 10° N 22:02:31 67° WNW 22:06:38 10° SSW
Cosmos 220 Rocket 4.0 21:59:40 10° SSW 22:03:44 53° WNW 22:07:48 10° N
Cosmos 1461 2.7 22:06:06 10° NNW 22:09:53 62° WSW 22:13:48 10° SSE
ARIANE 5 R/B 4.0 21:50:55 10° W 22:10:49 45° NNW 22:14:39 10° ENE
H-2A R/B 1.9 22:10:49 10° SW 22:12:58 31° SSE 22:14:41 10° E
SMAP 3.4 22:10:25 10° NNE 22:15:02 74° ESE 22:19:42 10° S
ARIANE 5 R/B 4.3 22:10:09 10° WNW 22:16:05 18° NNW 22:19:16 10° NNE
Cosmos 1943 Rocket 2.7 22:11:11 10° NW 22:16:23 38° WSW 22:21:35 10° S
ARIANE 5 DEB (SYLDA) 4.5 22:16:50 10° W 22:31:27 47° NNW 22:35:35 10° ENE
